Regional Weather Roundup
Issued by NWS Green Bay, WI

Home | Current Version | Previous Version | Text Only | Print | Product List | Glossary On
Versions: 1 2 3 4 5 6 7 8 9 10 11 12 13 14 15 16 17 18 19 20 21 22 23 24 25 26 27 28 29 30 31 32 33 34 35 36 37 38 39 40 41 42 43 44 45 46 47 48 49 50
000
ASUS43 KGRB 230910
RWRGRB

NORTH-CENTRAL AND NORTHEAST WISCONSIN REGIONAL WEATHER ROUNDUP
NATIONAL WEATHER SERVICE GREEN BAY WI
300 AM CST SUN NOV 23 2014

WIZ005-009-010>012-018-019-231000-
NORTH CENTRAL WISCONSIN

CITY           SKY/WX    TMP DP  RH WIND       PRES   REMARKS
IRONWOOD       CLOUDY    39  37  93 CALM      29.49F
MANITOWISH WTR FOG       36  36 100 SE10      29.54F VSB 1/2
ARBOR VITAE    DRZL/FOG  40  38  96 S9        29.55F VSB 1/2
EAGLE RIVER    FOG       37  37 100 SE7       29.57F VSB 1/2
LAND O LAKES   FOG       38  38 100 S6        29.57F VSB 3/4
RHINELANDER    FOG       39  39 100 SE6       29.58F VSB 1/4
PHILLIPS       FOG       39  39 100 S8        29.53F VSB 1/2
ANTIGO         FOG       36  36 100 SE9       29.61F VSB 1/4
TOMAHAWK       FOG       38  37  97 S5        29.57F VSB 1/2
MERRILL        DRZL/FOG  39  39 100 S3        29.59F VSB 1/4
$$

WIZ013-073-231000-
NORTHEAST WISCONSIN

CITY           SKY/WX    TMP DP  RH WIND       PRES   REMARKS
IRON MOUNTAIN  FOG       34  33  96 SE5       29.64F VSB 1/4
MARINETTE      CLOUDY    41  39  93 S7        29.67F VSB 1/2
OCONTO         CLOUDY    41  41 100 S5        29.66F VSB 3/4
$$

WIZ017-030-035>037-045-231000-
CENTRAL WISCONSIN

CITY           SKY/WX    TMP DP  RH WIND       PRES   REMARKS
MEDFORD        FOG       39  39  99 SE9       29.56F VSB 1/4
WAUSAU         LGT RAIN  40  40 100 SE6       29.59F VSB 1/4
MOSINEE        LGT RAIN  41  41 100 SE7       29.61F VSB<1/4
MARSHFIELD     FOG       42  42 100 S5        29.58F VSB 1/4
WISC RAPIDS    CLOUDY    48  46  93 S9        29.62F
STEVENS POINT  DRZL/FOG  44  44 100 S8        29.62F VSB 3/4
WAUPACA        CLOUDY    48  47  95 S6        29.64F FOG
SHAWANO        FOG       46  44  96 S3        29.65F VSB 1/4
CLINTONVILLE   FOG       45  45 100 S7        29.65F VSB 1/2
$$

WIZ038-039-048-051-231000-
FOX VALLEY

CITY           SKY/WX    TMP DP  RH WIND       PRES   REMARKS
NWS GREEN BAY  CLOUDY    46  45  96 S8        29.67F FOG
APPLETON       CLOUDY    45  45 100 S13       29.66F
OSHKOSH        CLOUDY    48  45  89 S15       29.67F
FOND DU LAC    CLOUDY    49  45  86 S17       29.68F
$$

WIZ022-050-052-231000-
EAST CENTRAL WISCONSIN

CITY           SKY/WX    TMP DP  RH WIND       PRES   REMARKS
STURGEON BAY   CLOUDY    45  43  93 S10       29.69F
MANITOWOC      CLOUDY    45  44  97 S12       29.70F FOG
SHEBOYGAN      CLOUDY    46  44  93 S8        29.70F FOG
$$

LMZ563-521-522-541>543-231000-
LAKESHORE

STATION/POSITION TIME  TEMP    WIND        PRES    VSBY  WAVE
                       AIR SEA DIR/SP/G                  HT/PER
                 (UTC) (F)     (DEG/KT/KT) (MB)    (MI)  (FT/S)
SHEBOYGAN LKSHOR 0900   45 38  180/ 12/ 13 1006.6F
KEWAUNEE LKSHORE 0900   40     170/  9/ 10 1005.1F
NORTHPORT PIER   0900   41     140/  5/  8 1005.8F
N MID LAKE BUOY  0900   43 42  170/ 16/ 19 1006.6F         3/ 7
CHAMBERS ISLAND  0900   43     150/  7/ 12 1005.8S
MENOMINEE LKSHOR 0900   38     150/  7/ 10 1005.5F
$$


USA.gov is the U.S. government's official web portal to all federal, state and local government web resources and services.